GSAT0217 (GALILEO 21)

Last updated on Fri Jun 19 2026 20:04:05 GMT+0000 (Coordinated Universal Time)

1 43057U 17079C 26167.35438370 .00000047 00000+0 00000+0 0 9997 2 43057 55.0717 221.5274 0004985 283.8791 76.1632 1.70474228 52976
UTC large
Height (km)
Speed (km/s)
/
Latitude / Longitude
Inclination (degrees)
Orbital Period (minutes)
Azimuth
Elevation
Range (km)
Doppler Factor

Next 0 passes for location: London (51.5072 / 0.1276)

No passes found over London.
GSAT0217 (GALILEO 21)